This is the latest recevied weather packets stored in our database for station/object KO4DYK. If no packets are shown the sender has not sent any weather packets the latest 10 day(s).
| Time | Temp. | Humidity | Pressure | Rain* | Wind** | Luminosity | Snow |
|---|---|---|---|---|---|---|---|
| 1788270551 | 28.33° C | 87% | 1021.4 hPa | 0 mm | - | 237 W/m² | - |
| 1788270247 | 27.78° C | 90% | 1021.6 hPa | 0 mm | - | 212 W/m² | - |
| 1788269946 | 27.22° C | 93% | 1021.5 hPa | 0 mm | - | 196 W/m² | - |
| 1788269646 | 26.67° C | 96% | 1021.5 hPa | 0 mm | - | 184 W/m² | - |
| 1788269344 | 25.56° C | 99% | 1021.4 hPa | 0 mm | - | 154 W/m² | - |
| 1788269039 | 25° C | 99% | 1021.5 hPa | 0 mm | - | 110 W/m² | - |
| 1788268739 | 24.44° C | 99% | 1021.5 hPa | 0 mm | - | 71 W/m² | - |
| 1788268438 | 24.44° C | 99% | 1021.6 hPa | 0 mm | - | 61 W/m² | - |
| 1788268134 | 23.89° C | 99% | 1021.5 hPa | 0 mm | - | 56 W/m² | - |
| 1788267834 | 23.89° C | 99% | 1021.4 hPa | 0 mm | - | 52 W/m² | - |
| 1788267532 | 23.33° C | 99% | 1021.4 hPa | 0 mm | - | 49 W/m² | - |
| 1788267231 | 23.33° C | 99% | 1021.5 hPa | 0 mm | - | 47 W/m² | - |
| 1788266926 | 23.33° C | 99% | 1021.5 hPa | 0 mm | - | 45 W/m² | - |
| 1788266621 | 22.78° C | 99% | 1021.5 hPa | 0 mm | - | 42 W/m² | - |
| 1788266321 | 22.22° C | 99% | 1021.3 hPa | 0 mm | - | 39 W/m² | - |
| 1788266016 | 22.22° C | 99% | 1021.2 hPa | 0 mm | - | 37 W/m² | - |
| 1788265714 | 21.67° C | 99% | 1021.3 hPa | 0 mm | - | 34 W/m² | - |
| 1788265409 | 21.67° C | 99% | 1021.3 hPa | 0 mm | - | 32 W/m² | - |
| 1788265109 | 21.67° C | 99% | 1021.3 hPa | 0 mm | - | 30 W/m² | - |
| 1788264804 | 21.67° C | 99% | 1021.1 hPa | 0 mm | - | 26 W/m² | - |
| 1788264499 | 21.11° C | 99% | 1021.1 hPa | 0 mm | - | 24 W/m² | - |
| 1788264199 | 21.11° C | 99% | 1021.2 hPa | 0 mm | - | 21 W/m² | - |
| 1788263895 | 21.67° C | 99% | 1020.9 hPa | 0 mm | - | 17 W/m² | - |
| 1788263590 | 21.11° C | 99% | 1021 hPa | 0 mm | - | 15 W/m² | - |
| 1788263287 | 21.11° C | 99% | 1021 hPa | 0 mm | - | 12 W/m² | - |
* Rain latest hour (hover to see other rain measurements)
** Current wind speed in m/s (hover to see current wind gust speed)